Preview of NWS' New Version of Forecast
This preview is not operational and should not be used for support decisions.

Regional Weather Roundup (RWR)

Issued by National Weather Service (NWS)

                            
000
ASUS44 KJAN 231410
RWRMS 

MISSISSIPPI HOURLY WEATHER ROUNDUP
NATIONAL WEATHER SERVICE JACKSON MS
900 AM CDT TUE APR 23 2019

NOTE: "FAIR: INDICATES FEW OR NO CLOUDS BELOW 12,000 FEET WITH NO
SIGNIFICANT WEATHER AND/OR OBSTRUCTIONS TO VISIBILITY.

MSZ001>002-007>008-010>013-018>021-025>028-034>036-231500-
NORTHWEST MISSISSIPPI
  
CITY           SKY/WX    TMP DP  RH WIND       PRES   REMARKS
BATESVILLE       N/A     63  59  88 CALM      30.12S                  
CLARKSDALE     SUNNY     64  61  88 S7        30.11S                  
CLEVELAND      FAIR      64  58  82 S5        30.12S                  
GREENWOOD      FAIR      65  57  75 S6        30.12F                  
GREENVILLE     FAIR      65  58  78 SE5       30.10F                  
OLIVE BRANCH   CLOUDY    64  55  72 S9        30.10F                  
OXFORD         FAIR      64  54  68 SW6       30.14S                  
TUNICA           N/A     63  55  77 S5        30.11S                  
WINONA         FAIR      62  56  81 CALM      30.13F                  
$$

MSZ003>006-009-014>017-022>024-029>033-037>039-231500-
NORTHEAST MISSISSIPPI
  
CITY           SKY/WX    TMP DP  RH WIND       PRES   REMARKS
ABERDEEN       FAIR      63  63 100 SE3       30.16S                  
COLUMBUS AFB   FAIR      66  55  68 CALM      30.14S                  
CORINTH        FAIR      64  55  72 CALM      30.13R                  
GOLDN TRIANGLE FAIR      66  55  68 VRB5      30.15S                  
TUPELO         FAIR      65  55  70 SW3       30.13S                  
$$

MSZ040-058-231500-
CENTRAL MISSISSIPPI
  
CITY           SKY/WX    TMP DP  RH WIND       PRES   REMARKS
JACKSON INTL   FAIR      64  56  75 S3        30.14F                  
JACKSON HAWKNS FAIR      65  59  81 CALM      30.14F                  
MADISON        FAIR      63  59  88 CALM      30.14S                  
MERIDIAN KEY   FAIR      65  55  70 CALM      30.16S                  
MERIDIAN NAS   PTSUNNY   66  56  70 VRB5      30.16S                  
RAYMOND        FAIR      64  64 100 CALM      30.13F                  
VICKSBURG VKS  SUNNY     63  61  94 CALM      30.14R                  
$$

MSZ059>079-231500-
SOUTH MISSISSIPPI
  
CITY           SKY/WX    TMP DP  RH WIND       PRES   REMARKS
HATTIESBURG    FAIR      61  56  83 E3        30.17R                  
LAUREL         SUNNY     62  56  82 CALM      30.16S                  
MCCOMB         FAIR      62  58  86 CALM      30.15F FOG              
NATCHEZ        FAIR      64  60  87 S6        30.15R                  
PINE BELT        N/A     61  57  87 CALM      30.17S                  
$$

MSZ080>082-231500-
COASTAL MISSISSIPPI
  
CITY           SKY/WX    TMP DP  RH WIND       PRES   REMARKS
BAY ST LOUIS   SUNNY     66  61  82 VRB3      30.13F                  
BILOXI         FAIR      65  59  82 CALM      30.14S                  
PASCAGOULA     FAIR      68  61  78 CALM      30.15S                  
GULFPORT       FAIR      67  61  81 NE3       30.14S                  
$$

LAZ007>009-015>016-023>026-231500-
NORTHEAST LOUISIANA
  
CITY           SKY/WX    TMP DP  RH WIND       PRES   REMARKS
BASTROP        FAIR      67  64  87 CALM      30.12F                  
TALLULAH/VBURG FAIR      64  59  83 SE5       30.14R                  
VIDALIA        FAIR      65  60  85 CALM      30.13R                  
$$